User: anonymous   Login
Location: Unspecified
(0.0000°N, 0.0000°E)
Time: 04:15:06
(UTC+00:00)
Language:

TBA - TO BE ASSIGNED - Orbit

View from above orbital plane
View from above orbital plane
View from above satellite
View from above satellite

Ground track
Ground track

The orbit is defined by the following mean orbital elements,

1 69040U          26145.58357628 +.00000000 +00000-0 -38530-2 0 00006
2 69040  97.2848   0.3776 0000719  75.2193 284.9152 15.74641852    00
Epoch (UTC): 25 May 2026 14:00:20
Eccentricity: 0.0000719
inclination: 97.2848°
perigee height: 345 km
apogee height: 346 km
right ascension of ascending node: 0.3776°
argument of perigee: 75.2193°
revolutions per day: 15.74641852
mean anomaly at epoch: 284.9152°

The dashed part of the orbit path shows where the satellite is in the earth's shadow,  

DLR